This demonstration page uses our WeatherBlox Daily Observations layout. Learn more.

Left ArrowRight Arrow

44.8408, -93.29828

Hourly Observations for November 26, 2015

Temp ( °F °C ) Dew Point ( °F °C ) Humidity (%) Winds ( mph kmh ) Pressure ( in mb ) Visibility ( mi km ) Precip ( " mm )
12:53 am 00:53 Cloudy with Mist and Fog 38 3.3 34 1.1 86 86 NNW 14 22 30.12 1020 5 8 0.00 0.00
1:53 am 01:53 Cloudy with Haze 38 3.3 33 0.6 83 83 NNW 10 17 30.16 1021 6 10 0.00 0.00
2:53 am 02:53 Cloudy 37 2.8 32 0 82 82 NNW 12 19 30.18 1022 7 11 0.00 0.00
3:53 am 03:53 Cloudy 37 2.8 31 -0.6 79 79 N 13 20 30.16 1021 8 13 0.00 0.00
4:53 am 04:53 Cloudy 36 2.2 31 -0.6 82 82 N 9 15 30.17 1022 9 14 0.00 0.00
5:53 am 05:53 Cloudy 36 2.2 31 -0.6 82 82 N 13 20 30.22 1023 8 13 0.00 0.00
6:42 am 06:42 Cloudy 36 2 30 -1 81 81 N 12 19 30.24 1024 8 13 0.00 0.00
6:53 am 06:53 Cloudy 35 1.7 30 -1.1 82 82 N 15 24 30.23 1024 8 13 0.00 0.00
7:00 am 07:00 Cloudy with Light Rain 35 1.7 30 -1.1 82 82 N 13 20 30.24 1024 9 14 0.00 0.03
7:53 am 07:53 Cloudy with Light Snow 34 1.1 30 -1.1 85 85 N 14 22 30.25 1025 5 8 0.01 0.25
8:30 am 08:30 Cloudy with Light Snow 34 1 30 -1 87 87 N 14 22 30.27 1025 7 11 0.00 0.00
8:49 am 08:49 Cloudy with Light Snow 32 0 28 -2 87 87 N 15 24 30.27 1025 3 4 0.00 0.03
8:51 am 08:51 Cloudy with Light Snow 32 0 28 -2 87 87 N 13 20 30.27 1025 3 5 0.00 0.03
8:53 am 08:53 Cloudy with Light Snow 32 0 29 -1.7 88 88 N 12 19 30.25 1024 3 5 0.00 0.03
9:00 am 09:00 Cloudy with Light Snow 32 0 29 -1.7 88 88 N 12 19 30.24 1024 2 3 0.00 0.03
9:16 am 09:16 Cloudy with Light Snow 32 0 29 -1.7 88 88 N 13 20 30.24 1024 1 2 0.00 0.03
9:34 am 09:34 Cloudy with Light Snow 32 0 30 -1 93 93 NNW 14 22 30.27 1025 2 2 0.00 0.00
9:39 am 09:39 Cloudy with Light Snow 32 0 30 -1.1 92 92 NNW 14 22 30.27 1025 2 3 0.01 0.25
9:44 am 09:44 Cloudy with Light Snow 32 0 30 -1.1 92 92 NNW 12 19 30.30 1026 2 3 0.01 0.25
9:53 am 09:53 Cloudy with Light Snow 32 0 29 -1.7 88 88 NNW 10 17 30.29 1026 2 2 0.02 0.51
9:57 am 09:57 Cloudy with Light Snow 31 -0.6 29 -1.7 92 92 NNW 13 20 30.30 1026 1 2 0.00 0.03
9:59 am 09:59 Cloudy with Light Snow 31 -0.6 29 -1.7 92 92 NNW 12 19 30.30 1026 1 2 0.00 0.03
10:01 am 10:01 Cloudy with Snow 31 -0.6 29 -1.7 92 92 NNW 12 19 30.30 1026 1 1 0.00 0.03
10:18 am 10:18 Cloudy with Light Snow 30 -1 28 -2 93 93 NNW 12 19 30.30 1026 1 1 0.00 0.00
10:29 am 10:29 Cloudy with Light Snow 31 -0.6 29 -1.7 92 92 NNW 12 19 30.30 1026 1 1 0.03 0.76
10:42 am 10:42 Cloudy with Light Snow 30 -1 28 -2 93 93 N 15 24 30.30 1026 1 2 0.00 0.00
10:53 am 10:53 Cloudy with Light Snow 30 -1 28 -2 93 93 N 15 24 30.27 1025 1 1 0.00 0.00
11:04 am 11:04 Cloudy with Light Snow 30 -1 28 -2 93 93 N 14 22 30.27 1025 1 1 0.00 0.00
11:09 am 11:09 Cloudy with Light Snow 31 -0.6 29 -1.7 92 92 NNW 13 20 30.27 1025 1 2 0.01 0.25
11:13 am 11:13 Cloudy with Light Snow 31 -0.6 29 -1.7 92 92 N 12 19 30.27 1025 2 2 0.01 0.25
11:35 am 11:35 Cloudy with Light Snow 30 -1.1 28 -2.2 92 92 NNW 13 20 30.27 1025 2 2 0.02 0.51
11:43 am 11:43 Cloudy with Light Snow 30 -1.1 28 -2.2 92 92 N 13 20 30.27 1025 2 3 0.02 0.51
11:53 am 11:53 Cloudy with Light Snow 30 -1.1 28 -2.2 92 92 NNW 12 19 30.27 1025 2 3 0.02 0.51
12:00 pm 12:00 Cloudy with Light Snow 30 -1 28 -2 93 93 NNW 17 28 30.27 1025 2 3 0.00 0.00
12:11 pm 12:11 Cloudy with Light Snow 30 -1.1 28 -2.2 92 92 NNW 15 24 30.27 1025 2 2 0.01 0.25
12:32 pm 12:32 Cloudy with Light Snow 30 -1 27 -3 86 86 NNW 17 28 30.30 1026 2 2 0.00 0.00
12:34 pm 12:34 Cloudy with Light Snow 30 -1 27 -3 86 86 NNW 16 26 30.30 1026 2 3 0.00 0.00
12:53 pm 12:53 Cloudy with Light Snow 30 -1.1 27 -2.8 88 88 NNW 13 20 30.29 1026 1 2 0.01 0.25
1:09 pm 13:09 Cloudy with Light Snow 29 -1.7 27 -2.8 92 92 NNW 16 26 30.33 1027 1 1 0.01 0.25
1:22 pm 13:22 Mostly Cloudy with Light Snow 28 -2 27 -3 93 93 NNW 14 22 30.33 1027 1 1 0.00 0.00
1:34 pm 13:34 Mostly Cloudy with Light Snow 29 -1.7 27 -2.8 92 92 NNW 15 24 30.33 1027 1 2 0.02 0.51
1:37 pm 13:37 Cloudy with Light Snow 29 -1.7 27 -2.8 92 92 NNW 15 24 30.33 1027 2 2 0.02 0.51
1:42 pm 13:42 Cloudy with Light Snow 28 -2 27 -3 93 93 N 16 26 30.33 1027 3 4 0.00 0.00
1:53 pm 13:53 Cloudy with Light Snow 29 -1.7 27 -2.8 92 92 NNW 13 20 30.29 1026 3 4 0.02 0.51
2:00 pm 14:00 Cloudy with Light Snow 28 -2 27 -3 93 93 NNW 12 19 30.33 1027 3 5 0.00 0.00
2:23 pm 14:23 Cloudy with Light Snow 30 -1.1 26 -3.3 85 85 NNW 14 22 30.30 1026 5 8 0.00 0.03
2:53 pm 14:53 Cloudy with Light Snow 29 -1.7 26 -3.3 89 89 NNW 13 20 30.33 1027 4 6 0.00 0.03
3:53 pm 15:53 Cloudy 29 -1.7 25 -3.9 85 85 NNW 14 22 30.35 1028 7 11 0.00 0.03
4:48 pm 16:48 Cloudy 30 -1 23 -5 75 75 NNW 17 28 30.39 1029 8 13 0.00 0.00
4:53 pm 16:53 Cloudy 30 -1.1 23 -5 75 75 NNW 18 30 30.36 1028 9 14 0.00 0.03
5:53 pm 17:53 Mostly Cloudy 29 -1.7 22 -5.6 75 75 N 17 28 30.38 1029 10 16 0.00 0.00
6:53 pm 18:53 Partly Cloudy 28 -2.2 21 -6.1 75 75 NNW 16 26 30.41 1030 10 16 0.00 0.00
7:53 pm 19:53 Mostly Cloudy 27 -2.8 20 -6.7 75 75 N 14 22 30.42 1030 10 16 0.00 0.00
8:40 pm 20:40 Cloudy 27 -3 19 -7 74 74 N 17 28 30.45 1031 10 16 0.00 0.00
8:53 pm 20:53 Cloudy 26 -3.3 19 -7.2 75 75 NNW 18 30 30.44 1031 10 16 0.00 0.00
9:53 pm 21:53 Cloudy 26 -3.3 19 -7.2 75 75 N 14 22 30.47 1032 10 16 0.00 0.00
10:53 pm 22:53 Cloudy 25 -3.9 19 -7.2 78 78 N 12 19 30.49 1033 10 16 0.00 0.00
11:53 pm 23:53 Cloudy 24 -4.4 18 -7.8 77 77 NNW 15 24 30.51 1033 10 16 0.00 0.00

Powered by AerisWeather